Flag for Germany Weather past 2 weeks in Neustrelitz, Mecklenburg-Western Pomerania, Germany

Now
66 °F

Mild.


Feels Like: 66 °F
Forecast: 58 / 82 °F
Wind: 10 mph from Northeast

Location: Laage

Current Time: Jul 23, 2014 at 10:26:06 AM

Latest Report: Jul 23, 2014 at 7:20 AM


Visibility: N/A

Pressure: 30.18 "Hg

Humidity: 83%

Dew point: 61 °F

Location of NeustrelitzLocation

Historic Weather in Neustrelitz — Graph

°F

Neustrelitz temperature yesterday

Maximum temperature yesterday: 81 °F (at 12:20 PM)
Minimum temperature yesterday: 61 °F (at 3:20 AM)
Average temperature yesterday: 72 °F

Past Weeks' High & Low Weather Summary

 TemperatureHumidityPressure
High84 °F (Jul 19, 2:20 PM)100% (Jul 8, 9:20 PM)30.18 "Hg (Jul 8, 9:20 PM)
Low55 °F (Jul 12, 10:20 PM)35% (Jul 19, 3:20 PM)29.65 "Hg (Jul 9, 3:20 PM)
Average68 °F74%29.96 "Hg
* Reported Jul 8 7:20 AM — Jul 23 7:20 AM, Neustrelitz, Weather by CustomWeather, © 2014

Note: Actual official high and low records may vary slightly from our data, if they occured in-between our weather recording intervals... More about our weather records

Advertising

Neustrelitz weather history for previous 24 hours

 ConditionsComfort  
Time TempWeatherWind HumidityBarometerVisibility
7:20 AM
Jul 23
66 °FMild.10 mph83%30.18 "HgN/A
6:20 AM61 °FCool.6 mph88%30.18 "HgN/A
5:20 AM59 °FCool.7 mph88%30.18 "HgN/A
4:20 AM59 °FCool.7 mph82%30.18 "HgN/A
3:20 AM63 °FMild.8 mph77%30.18 "HgN/A
2:20 AM63 °FPassing clouds.7 mph77%30.18 "HgN/A
1:20 AM64 °FMild.8 mph78%30.18 "HgN/A
6:20 PM
Jul 22
79 °FPassing clouds.18 mph42%30.12 "HgN/A
5:20 PM81 °FPassing clouds.21 mph39%30.12 "HgN/A
4:20 PM81 °FPassing clouds.22 mph42%30.09 "HgN/A
3:20 PM81 °FScattered clouds.20 mph45%30.09 "HgN/A
2:20 PM81 °FScattered clouds.20 mph45%30.12 "HgN/A
1:20 PM81 °FScattered clouds.13 mph51%30.09 "HgN/A
12:20 PM81 °FScattered clouds.16 mph48%30.09 "HgN/A
11:20 AM79 °FScattered clouds.13 mph58%30.09 "HgN/A
10:20 AM75 °FPassing clouds.13 mph69%30.09 "HgN/A
Weather by CustomWeather, © 2014

See weather overviewHow to use our weather pages